| time (UTC) | temp F | wind direction | speed knots | gust knots | rain 1hr in | rain 24hr in | rain mn in | humidity % | barometer mb |
| 20260507103158 | 75 | 51 | 11.3 | 23.5 | 0.00 | 0.00 | 0.00 | 31 | 1010.2 |
| 20260507102658 | 75 | 153 | 4.3 | 17.4 | 0.00 | 0.00 | 0.00 | 31 | 1010.2 |
| 20260507102158 | 75 | 78 | 1.7 | 15.6 | 0.00 | 0.00 | 0.00 | 30 | 1010.0 |
| 20260507101658 | 75 | 148 | 11.3 | 13.0 | 0.00 | 0.00 | 0.00 | 30 | 1010.2 |
| 20260507101204 | 75 | 107 | 1.7 | 12.2 | 0.00 | 0.00 | 0.00 | 30 | 1010.1 |
| 20260507100707 | 75 | 102 | 8.7 | 20.9 | 0.00 | 0.00 | 0.00 | 30 | 1010.1 |
| 20260507100204 | 75 | 76 | 7.0 | 18.2 | 0.00 | 0.00 | 0.00 | 30 | 1010.3 |
| 20260507095658 | 74 | 128 | 7.0 | 27.8 | 0.00 | 0.00 | 0.00 | 30 | 1010.6 |
| 20260507095158 | 75 | 68 | 8.7 | 19.1 | 0.00 | 0.00 | 0.00 | 30 | 1010.5 |
| 20260507094701 | 75 | 65 | 7.8 | 20.9 | 0.00 | 0.00 | 0.00 | 29 | 1010.5 |
| 20260507094158 | 75 | 96 | 13.9 | 19.1 | 0.00 | 0.00 | 0.00 | 29 | 1010.8 |
| 20260507093658 | 74 | 83 | 13.0 | 20.9 | 0.00 | 0.00 | 0.00 | 29 | 1010.5 |
| 20260507093158 | 75 | 73 | 12.2 | 19.1 | 0.00 | 0.00 | 0.00 | 31 | 1010.5 |
| 20260507092658 | 74 | 80 | 13.0 | 21.7 | 0.00 | 0.00 | 0.00 | 31 | 1010.4 |
| 20260507092158 | 74 | 84 | 11.3 | 16.5 | 0.00 | 0.00 | 0.00 | 32 | 1010.5 |
| 20260507091658 | 74 | 133 | 7.0 | 22.6 | 0.00 | 0.00 | 0.00 | 32 | 1010.7 |
| 20260507091201 | 74 | 72 | 3.5 | 13.0 | 0.00 | 0.00 | 0.00 | 34 | 1010.6 |
| 20260507090658 | 73 | 123 | 3.5 | 14.8 | 0.00 | 0.00 | 0.00 | 34 | 1010.5 |
| 20260507090158 | 73 | 125 | 7.8 | 23.5 | 0.00 | 0.00 | 0.00 | 33 | 1010.6 |
| 20260507085658 | 73 | 55 | 8.7 | 20.9 | 0.00 | 0.00 | 0.00 | 34 | 1010.6 |
| 20260507085205 | 73 | 99 | 17.4 | 19.1 | 0.00 | 0.00 | 0.00 | 34 | 1010.6 |
| 20260507084701 | 73 | 96 | 14.8 | 20.0 | 0.00 | 0.00 | 0.00 | 35 | 1010.8 |
| 20260507084158 | 73 | 124 | 7.8 | 24.3 | 0.00 | 0.00 | 0.00 | 35 | 1010.8 |
| 20260507083658 | 72 | 87 | 7.0 | 29.5 | 0.00 | 0.00 | 0.00 | 38 | 1010.7 |
| 20260507083201 | 72 | 85 | 18.2 | 28.7 | 0.00 | 0.00 | 0.00 | 38 | 1010.8 |
| 20260507082701 | 72 | 87 | 9.6 | 19.1 | 0.00 | 0.00 | 0.00 | 39 | 1011.0 |
| 20260507082201 | 72 | 63 | 6.1 | 21.7 | 0.00 | 0.00 | 0.00 | 38 | 1010.8 |
| 20260507081658 | 72 | 128 | 6.1 | 18.2 | 0.00 | 0.00 | 0.00 | 40 | 1010.8 |
| 20260507081201 | 72 | 54 | 8.7 | 19.1 | 0.00 | 0.00 | 0.00 | 41 | 1010.9 |
| 20260507080704 | 72 | 183 | 0.9 | 19.1 | 0.00 | 0.00 | 0.00 | 40 | 1010.9 |
| 20260507080158 | 72 | 213 | 6.1 | 20.0 | 0.00 | 0.00 | 0.00 | 41 | 1011.1 |
| 20260507075704 | 72 | 113 | 6.1 | 13.9 | 0.00 | 0.00 | 0.00 | 43 | 1011.2 |
| 20260507075201 | 72 | 65 | 1.7 | 11.3 | 0.00 | 0.00 | 0.00 | 43 | 1011.2 |
| 20260507074658 | 72 | 112 | 7.8 | 15.6 | 0.00 | 0.00 | 0.00 | 42 | 1011.3 |
| 20260507074201 | 72 | 176 | 1.7 | 7.8 | 0.00 | 0.00 | 0.00 | 44 | 1011.4 |
| 20260507073658 | 71 | 128 | 7.0 | 12.2 | 0.00 | 0.00 | 0.00 | 45 | 1011.5 |
| 20260507073202 | 71 | 13 | 2.6 | 8.7 | 0.00 | 0.00 | 0.00 | 45 | 1011.6 |
| 20260507072658 | 71 | 115 | 7.8 | 11.3 | 0.00 | 0.00 | 0.00 | 44 | 1011.6 |
| 20260507072158 | 70 | 103 | 2.6 | 11.3 | 0.00 | 0.00 | 0.00 | 43 | 1011.7 |
| 20260507071701 | 70 | 24 | 6.1 | 15.6 | 0.00 | 0.00 | 0.00 | 45 | 1011.8 |
| 20260507071202 | 70 | 324 | 3.5 | 15.6 | 0.00 | 0.00 | 0.00 | 45 | 1011.8 |
| 20260507070659 | 70 | 177 | 0.9 | 10.4 | 0.00 | 0.00 | 0.00 | 46 | 1011.8 |
| 20260507070158 | 69 | 170 | 5.2 | 13.9 | 0.00 | 0.00 | 0.00 | 50 | 1011.8 |
| 20260507065701 | 69 | 122 | 2.6 | 11.3 | 0.00 | 0.00 | 0.00 | 46 | 1011.8 |
| 20260507065202 | 69 | 52 | 1.7 | 10.4 | 0.00 | 0.00 | 0.00 | 48 | 1011.8 |
| 20260507064701 | 69 | 89 | 12.2 | 13.9 | 0.00 | 0.00 | 0.00 | 46 | 1011.8 |
| 20260507064201 | 69 | 63 | 3.5 | 11.3 | 0.00 | 0.00 | 0.00 | 48 | 1011.9 |
| 20260507063659 | 69 | 56 | 3.5 | 13.9 | 0.00 | 0.00 | 0.00 | 50 | 1011.8 |
| 20260507063201 | 68 | 82 | 8.7 | 8.7 | 0.00 | 0.00 | 0.00 | 49 | 1011.8 |
| 20260507062659 | 68 | 44 | 3.5 | 5.2 | 0.00 | 0.00 | 0.00 | 51 | 1011.9 |
| 20260507062159 | 68 | 107 | 0.0 | 7.0 | 0.00 | 0.00 | 0.00 | 51 | 1012.0 |
| 20260507061701 | 68 | 91 | 5.2 | 6.1 | 0.00 | 0.00 | 0.00 | 48 | 1012.0 |
| 20260507061158 | 68 | 109 | 1.7 | 4.3 | 0.00 | 0.00 | 0.00 | 48 | 1012.0 |
| 20260507060659 | 67 | 338 | 0.0 | 0.0 | 0.00 | 0.00 | 0.00 | 48 | 1011.9 |
| 20260507060202 | 67 | 338 | 0.0 | 0.0 | 0.00 | 0.00 | 0.00 | 48 | 1012.1 |
| 20260507055658 | 67 | 47 | 0.0 | 0.0 | 0.00 | 0.00 | 0.00 | 48 | 1012.2 |
| 20260507055159 | 67 | 47 | 0.0 | 0.0 | 0.00 | 0.00 | 0.00 | 48 | 1012.1 |
| 20260507054702 | 67 | 281 | 0.0 | 0.9 | 0.00 | 0.00 | 0.00 | 48 | 1012.0 |
| 20260507054202 | 67 | 270 | 0.0 | 3.5 | 0.00 | 0.00 | 0.00 | 46 | 1012.0 |
| 20260507053659 | 67 | 286 | 2.6 | 4.3 | 0.00 | 0.00 | 0.00 | 46 | 1012.1 |
| 20260507053158 | 66 | 179 | 0.0 | 0.0 | 0.00 | 0.00 | 0.00 | 45 | 1012.2 |
| 20260507052702 | 66 | 178 | 0.0 | 2.6 | 0.00 | 0.00 | 0.00 | 45 | 1012.0 |
| 20260507052159 | 67 | 186 | 1.7 | 3.5 | 0.00 | 0.00 | 0.00 | 45 | 1011.9 |
| 20260507051702 | 66 | 96 | 0.0 | 1.7 | 0.00 | 0.00 | 0.00 | 44 | 1011.9 |
| 20260507051208 | 66 | 113 | 0.0 | 1.7 | 0.00 | 0.00 | 0.00 | 46 | 1012.0 |
| 20260507050702 | 66 | 107 | 0.0 | 1.7 | 0.00 | 0.00 | 0.00 | 45 | 1012.0 |
| 20260507050202 | 66 | 106 | 0.9 | 1.7 | 0.00 | 0.00 | 0.00 | 45 | 1012.0 |
| 20260507045659 | 66 | 187 | 0.9 | 2.6 | 0.00 | 0.00 | 0.00 | 44 | 1011.9 |
| 20260507045202 | 66 | 96 | 0.9 | 3.5 | 0.00 | 0.00 | 0.00 | 44 | 1011.9 |
| 20260507044702 | 66 | 230 | 1.7 | 3.5 | 0.00 | 0.00 | 0.00 | 44 | 1011.9 |
| 20260507044202 | 66 | 221 | 2.6 | 2.6 | 0.00 | 0.00 | 0.00 | 44 | 1012.0 |
| 20260507043659 | 66 | 240 | 0.0 | 0.9 | 0.00 | 0.00 | 0.00 | 43 | 1011.9 |
| 20260507043159 | 66 | 204 | 0.0 | 3.5 | 0.00 | 0.00 | 0.00 | 44 | 1011.9 |
| 20260507042659 | 65 | 84 | 0.0 | 2.6 | 0.00 | 0.00 | 0.00 | 46 | 1011.8 |
| 20260507042202 | 65 | 142 | 0.0 | 1.7 | 0.00 | 0.00 | 0.00 | 49 | 1011.9 |
| 20260507041659 | 65 | 142 | 0.9 | 0.9 | 0.00 | 0.00 | 0.00 | 48 | 1012.0 |
| 20260507041159 | 65 | 142 | 0.0 | 0.9 | 0.00 | 0.00 | 0.00 | 48 | 1011.9 |
| 20260507040659 | 66 | 142 | 0.0 | 3.5 | 0.00 | 0.00 | 0.00 | 48 | 1011.8 |
| 20260507040159 | 66 | 131 | 2.6 | 3.5 | 0.00 | 0.00 | 0.00 | 47 | 1012.0 |
| 20260507035702 | 66 | 155 | 0.0 | 1.7 | 0.00 | 0.00 | 0.00 | 45 | 1012.0 |
| 20260507035202 | 66 | 246 | 0.9 | 2.6 | 0.00 | 0.00 | 0.00 | 44 | 1012.2 |
| 20260507034659 | 66 | 246 | 1.7 | 2.6 | 0.00 | 0.00 | 0.00 | 46 | 1012.1 |
| 20260507034159 | 66 | 246 | 1.7 | 3.5 | 0.00 | 0.00 | 0.00 | 46 | 1012.1 |
| 20260507033659 | 66 | 225 | 1.7 | 2.6 | 0.00 | 0.00 | 0.00 | 47 | 1012.1 |
| 20260507033159 | 66 | 242 | 0.9 | 3.5 | 0.00 | 0.00 | 0.00 | 48 | 1011.9 |
| 20260507032702 | 66 | 197 | 0.0 | 0.0 | 0.00 | 0.00 | 0.00 | 48 | 1011.8 |
| 20260507032202 | 66 | 197 | 0.0 | 1.7 | 0.00 | 0.00 | 0.00 | 48 | 1011.8 |
| 20260507031705 | 66 | 198 | 0.0 | 2.6 | 0.00 | 0.00 | 0.00 | 47 | 1011.9 |
| 20260507031159 | 66 | 248 | 0.0 | 2.6 | 0.00 | 0.00 | 0.00 | 46 | 1011.9 |
| 20260507030659 | 66 | 150 | 0.9 | 2.6 | 0.00 | 0.00 | 0.00 | 46 | 1012.1 |
| 20260507030205 | 66 | 184 | 0.0 | 1.7 | 0.00 | 0.00 | 0.00 | 47 | 1012.0 |
| 20260507025659 | 66 | 184 | 0.9 | 3.5 | 0.00 | 0.00 | 0.00 | 48 | 1012.1 |
| 20260507025202 | 66 | 110 | 0.0 | 3.5 | 0.00 | 0.00 | 0.00 | 47 | 1012.0 |
| 20260507024705 | 66 | 134 | 0.9 | 3.5 | 0.00 | 0.00 | 0.00 | 48 | 1012.0 |
| 20260507024205 | 67 | 117 | 2.6 | 4.3 | 0.00 | 0.00 | 0.00 | 47 | 1012.2 |
| 20260507023659 | 67 | 171 | 0.0 | 5.2 | 0.00 | 0.00 | 0.00 | 46 | 1012.1 |
| 20260507023205 | 68 | 128 | 0.0 | 2.6 | 0.00 | 0.00 | 0.00 | 44 | 1012.3 |
| 20260507022659 | 68 | 142 | 0.0 | 2.6 | 0.00 | 0.00 | 0.00 | 43 | 1012.1 |
| 20260507022202 | 68 | 218 | 0.0 | 0.0 | 0.00 | 0.00 | 0.00 | 42 | 1012.1 |
| 20260507021659 | 68 | 217 | 0.0 | 0.0 | 0.00 | 0.00 | 0.00 | 41 | 1012.0 |
| 20260507021202 | 68 | 218 | 0.0 | 5.2 | 0.00 | 0.00 | 0.00 | 41 | 1012.0 |
| 20260507020702 | 68 | 200 | 0.0 | 4.3 | 0.00 | 0.00 | 0.00 | 41 | 1012.0 |
| 20260507020156 | 68 | 221 | 1.7 | 6.1 | 0.00 | 0.00 | 0.00 | 41 | 1012.1 |
| 20260507015656 | 68 | 273 | 0.0 | 2.6 | 0.00 | 0.00 | 0.00 | 42 | 1012.1 |
| 20260507015156 | 68 | 273 | 0.0 | 0.9 | 0.00 | 0.00 | 0.00 | 42 | 1012.0 |
| 20260507014659 | 68 | 273 | 0.0 | 3.5 | 0.00 | 0.00 | 0.00 | 43 | 1012.2 |
| 20260507014156 | 68 | 355 | 0.0 | 1.7 | 0.00 | 0.00 | 0.00 | 43 | 1012.0 |
| 20260507013656 | 68 | 44 | 0.9 | 2.6 | 0.00 | 0.00 | 0.00 | 42 | 1012.0 |
| 20260507013156 | 68 | 5 | 0.0 | 1.7 | 0.00 | 0.00 | 0.00 | 43 | 1012.0 |
| 20260507012659 | 68 | 5 | 0.0 | 3.5 | 0.00 | 0.00 | 0.00 | 43 | 1011.7 |
| 20260507012202 | 68 | 355 | 3.5 | 5.2 | 0.00 | 0.00 | 0.00 | 43 | 1011.4 |
| 20260507011656 | 68 | 36 | 0.0 | 0.0 | 0.00 | 0.00 | 0.00 | 43 | 1011.8 |
| 20260507011156 | 68 | 320 | 0.0 | 1.7 | 0.00 | 0.00 | 0.00 | 43 | 1012.1 |
| 20260507010702 | 68 | 254 | 0.9 | 2.6 | 0.00 | 0.00 | 0.00 | 43 | 1012.1 |
| 20260507010159 | 68 | 270 | 0.0 | 3.5 | 0.00 | 0.00 | 0.00 | 43 | 1012.1 |
| 20260507005702 | 68 | 221 | 1.7 | 4.3 | 0.00 | 0.00 | 0.00 | 43 | 1012.0 |
| 20260507005159 | 68 | 234 | 0.0 | 2.6 | 0.00 | 0.00 | 0.00 | 44 | 1011.8 |
| 20260507004656 | 68 | 275 | 0.9 | 3.5 | 0.00 | 0.00 | 0.00 | 44 | 1011.9 |
| 20260507004203 | 69 | 295 | 3.5 | 3.5 | 0.00 | 0.00 | 0.00 | 44 | 1012.0 |
| 20260507003657 | 69 | 11 | 0.0 | 0.0 | 0.00 | 0.00 | 0.00 | 43 | 1012.0 |
| 20260507003156 | 69 | 312 | 0.0 | 0.0 | 0.00 | 0.00 | 0.00 | 43 | 1011.8 |
| 20260507002659 | 69 | 312 | 0.0 | 0.0 | 0.00 | 0.00 | 0.00 | 43 | 1012.0 |
| 20260507002157 | 69 | 5 | 0.0 | 0.0 | 0.00 | 0.00 | 0.00 | 43 | 1011.9 |
| 20260507001659 | 69 | 276 | 0.0 | 0.9 | 0.00 | 0.00 | 0.00 | 43 | 1012.0 |
| 20260507001159 | 69 | 355 | 0.0 | 0.0 | 0.00 | 0.00 | 0.00 | 43 | 1012.1 |
| 20260507000656 | 69 | 292 | 0.0 | 0.0 | 0.00 | 0.00 | 0.00 | 43 | 1012.2 |
| 20260507000159 | 69 | 128 | 0.0 | 2.6 | 0.00 | 0.00 | 0.00 | 42 | 1012.2 |
| 20260506235657 | 69 | 173 | 0.0 | 4.3 | 0.00 | 0.00 | 0.00 | 43 | 1012.2 |
| 20260506235159 | 69 | 186 | 2.6 | 7.8 | 0.00 | 0.00 | 0.00 | 42 | 1012.2 |
| 20260506234656 | 69 | 188 | 4.3 | 8.7 | 0.00 | 0.00 | 0.00 | 42 | 1012.3 |
| 20260506234159 | 69 | 202 | 5.2 | 7.8 | 0.00 | 0.00 | 0.00 | 41 | 1012.2 |
| 20260506233700 | 70 | 219 | 4.3 | 11.3 | 0.00 | 0.00 | 0.00 | 40 | 1012.3 |
| 20260506233156 | 70 | 179 | 8.7 | 12.2 | 0.00 | 0.00 | 0.00 | 39 | 1012.3 |
| 20260506232656 | 70 | 200 | 12.2 | 12.2 | 0.00 | 0.00 | 0.00 | 39 | 1012.4 |
| 20260506232157 | 70 | 196 | 10.4 | 10.4 | 0.00 | 0.00 | 0.00 | 39 | 1012.4 |
| 20260506231700 | 70 | 199 | 9.6 | 12.2 | 0.00 | 0.00 | 0.00 | 37 | 1012.4 |
| 20260506231156 | 70 | 169 | 6.1 | 13.9 | 0.00 | 0.00 | 0.00 | 37 | 1012.3 |
| 20260506230656 | 70 | 197 | 8.7 | 15.6 | 0.00 | 0.00 | 0.00 | 38 | 1012.2 |
| 20260506230200 | 70 | 202 | 6.1 | 15.6 | 0.00 | 0.00 | 0.00 | 39 | 1012.2 |
| 20260506225656 | 70 | 188 | 11.3 | 17.4 | 0.00 | 0.00 | 0.00 | 39 | 1012.1 |
| 20260506225157 | 70 | 200 | 10.4 | 17.4 | 0.00 | 0.00 | 0.00 | 40 | 1012.0 |
| 20260506224657 | 70 | 186 | 10.4 | 16.5 | 0.00 | 0.00 | 0.00 | 38 | 1012.0 |
| 20260506224157 | 70 | 155 | 7.0 | 16.5 | 0.00 | 0.00 | 0.00 | 38 | 1011.9 |
| 20260506223656 | 70 | 213 | 6.1 | 18.2 | 0.00 | 0.00 | 0.00 | 41 | 1012.1 |
| 20260506223156 | 70 | 163 | 4.3 | 13.9 | 0.00 | 0.00 | 0.00 | 42 | 1012.0 |
| 20260506222657 | 69 | 83 | 6.1 | 13.0 | 0.00 | 0.00 | 0.00 | 43 | 1012.0 |
| 20260506222200 | 69 | 218 | 0.0 | 1.7 | 0.00 | 0.00 | 0.00 | 42 | 1012.2 |
| 20260506221657 | 69 | 109 | 1.7 | 7.8 | 0.00 | 0.00 | 0.00 | 41 | 1012.2 |
| 20260506221157 | 68 | 126 | 2.6 | 9.6 | 0.00 | 0.00 | 0.00 | 43 | 1012.1 |
| 20260506220657 | 68 | 189 | 2.6 | 7.0 | 0.00 | 0.00 | 0.00 | 41 | 1012.1 |
| 20260506220200 | 68 | 182 | 2.6 | 8.7 | 0.00 | 0.00 | 0.00 | 42 | 1012.0 |
| 20260506215700 | 68 | 147 | 4.3 | 6.1 | 0.00 | 0.00 | 0.00 | 46 | 1012.1 |
| 20260506215200 | 68 | 248 | 3.5 | 3.5 | 0.00 | 0.00 | 0.00 | 47 | 1011.9 |
| 20260506214657 | 68 | 118 | 0.0 | 4.3 | 0.00 | 0.00 | 0.00 | 47 | 1011.9 |
| 20260506214200 | 67 | 119 | 4.3 | 5.2 | 0.00 | 0.00 | 0.00 | 47 | 1012.1 |
| 20260506213703 | 67 | 180 | 0.9 | 2.6 | 0.00 | 0.00 | 0.00 | 50 | 1012.2 |
| 20260506213157 | 67 | 175 | 1.7 | 2.6 | 0.00 | 0.00 | 0.00 | 50 | 1012.0 |
| 20260506212657 | 67 | 157 | 0.0 | 4.3 | 0.00 | 0.00 | 0.00 | 50 | 1012.0 |
| 20260506212157 | 68 | 190 | 1.7 | 4.3 | 0.00 | 0.00 | 0.00 | 50 | 1011.9 |
| 20260506211657 | 68 | 236 | 1.7 | 4.3 | 0.00 | 0.00 | 0.00 | 49 | 1011.8 |
| 20260506211157 | 68 | 235 | 2.6 | 4.3 | 0.00 | 0.00 | 0.00 | 48 | 1011.5 |
| 20260506210700 | 68 | 101 | 0.0 | 0.9 | 0.00 | 0.00 | 0.00 | 48 | 1011.2 |
| 20260506210157 | 68 | 101 | 0.0 | 1.7 | 0.00 | 0.00 | 0.00 | 47 | 1011.2 |
| 20260506205700 | 68 | 101 | 0.0 | 4.3 | 0.00 | 0.00 | 0.00 | 46 | 1011.2 |
| 20260506205200 | 68 | 150 | 1.7 | 2.6 | 0.00 | 0.00 | 0.00 | 47 | 1011.6 |
| 20260506204657 | 68 | 151 | 2.6 | 2.6 | 0.00 | 0.00 | 0.00 | 47 | 1011.8 |
| 20260506204157 | 68 | 208 | 1.7 | 4.3 | 0.00 | 0.00 | 0.00 | 46 | 1011.7 |
| 20260506203657 | 68 | 254 | 0.9 | 3.5 | 0.00 | 0.00 | 0.00 | 50 | 1011.9 |
| 20260506203157 | 68 | 284 | 0.0 | 3.5 | 0.00 | 0.00 | 0.00 | 53 | 1012.0 |
| 20260506202657 | 68 | 278 | 2.6 | 3.5 | 0.00 | 0.00 | 0.00 | 53 | 1011.9 |
| 20260506202200 | 68 | 314 | 0.0 | 0.0 | 0.00 | 0.00 | 0.00 | 53 | 1011.9 |
| 20260506201700 | 68 | 72 | 0.0 | 0.0 | 0.00 | 0.00 | 0.00 | 54 | 1012.0 |
| 20260506201157 | 68 | 72 | 0.0 | 1.7 | 0.00 | 0.00 | 0.00 | 54 | 1012.1 |
| 20260506200657 | 68 | 72 | 0.9 | 2.6 | 0.00 | 0.00 | 0.00 | 56 | 1012.3 |
| 20260506200200 | 68 | 142 | 2.6 | 3.5 | 0.00 | 0.00 | 0.00 | 55 | 1012.4 |
| 20260506195700 | 68 | 100 | 0.9 | 2.6 | 0.00 | 0.00 | 0.00 | 54 | 1012.4 |
| 20260506195157 | 69 | 109 | 0.9 | 2.6 | 0.00 | 0.00 | 0.00 | 45 | 1012.5 |
| 20260506194657 | 68 | 263 | 1.7 | 3.5 | 0.00 | 0.00 | 0.00 | 42 | 1012.7 |
| 20260506194203 | 68 | 355 | 0.0 | 3.5 | 0.00 | 0.00 | 0.00 | 54 | 1012.7 |
| 20260506193657 | 68 | 180 | 0.0 | 2.6 | 0.00 | 0.00 | 0.00 | 56 | 1012.7 |
| 20260506193203 | 68 | 148 | 2.6 | 2.6 | 0.00 | 0.00 | 0.00 | 56 | 1012.7 |
| 20260506192657 | 68 | 136 | 0.0 | 1.7 | 0.00 | 0.00 | 0.00 | 56 | 1012.5 |
| 20260506192157 | 69 | 171 | 0.0 | 2.6 | 0.00 | 0.00 | 0.00 | 54 | 1012.4 |
| 20260506191657 | 69 | 177 | 1.7 | 4.3 | 0.00 | 0.00 | 0.00 | 48 | 1012.6 |
| 20260506191157 | 69 | 181 | 0.9 | 5.2 | 0.00 | 0.00 | 0.00 | 43 | 1012.7 |
| 20260506190657 | 69 | 168 | 0.9 | 7.0 | 0.00 | 0.00 | 0.00 | 37 | 1012.7 |
| 20260506190158 | 69 | 178 | 6.1 | 7.8 | 0.00 | 0.00 | 0.00 | 41 | 1012.8 |
| 20260506185657 | 69 | 192 | 5.2 | 6.1 | 0.00 | 0.00 | 0.00 | 43 | 1012.8 |
| 20260506185207 | 69 | 169 | 4.3 | 7.0 | 0.00 | 0.00 | 0.00 | 44 | 1012.8 |
| 20260506184657 | 69 | 143 | 3.5 | 7.0 | 0.00 | 0.00 | 0.00 | 47 | 1012.8 |
| 20260506184157 | 69 | 157 | 1.7 | 7.8 | 0.00 | 0.00 | 0.00 | 50 | 1012.8 |
| 20260506183657 | 70 | 198 | 3.5 | 6.1 | 0.00 | 0.00 | 0.00 | 51 | 1012.8 |
| 20260506183157 | 70 | 186 | 2.6 | 6.1 | 0.00 | 0.00 | 0.00 | 52 | 1012.8 |
| 20260506182657 | 70 | 148 | 0.9 | 9.6 | 0.00 | 0.00 | 0.00 | 52 | 1012.8 |
| 20260506182203 | 70 | 211 | 5.2 | 9.6 | 0.00 | 0.00 | 0.00 | 52 | 1012.7 |
| 20260506181657 | 70 | 215 | 5.2 | 9.6 | 0.00 | 0.00 | 0.00 | 53 | 1012.7 |
| 20260506181200 | 70 | 216 | 3.5 | 5.2 | 0.00 | 0.00 | 0.00 | 57 | 1012.8 |
| 20260506180657 | 70 | 229 | 0.9 | 4.3 | 0.00 | 0.00 | 0.00 | 61 | 1012.8 |
| 20260506180200 | 70 | 229 | 0.0 | 2.6 | 0.00 | 0.00 | 0.00 | 61 | 1012.8 |
| 20260506175700 | 70 | 204 | 0.0 | 3.5 | 0.00 | 0.00 | 0.00 | 62 | 1012.7 |
| 20260506175157 | 70 | 256 | 0.0 | 2.6 | 0.00 | 0.00 | 0.00 | 62 | 1012.7 |
| 20260506174657 | 70 | 254 | 1.7 | 2.6 | 0.00 | 0.00 | 0.00 | 61 | 1012.7 |
| 20260506174200 | 70 | 229 | 2.6 | 3.5 | 0.00 | 0.00 | 0.00 | 61 | 1012.7 |
| 20260506173703 | 71 | 248 | 0.0 | 3.5 | 0.00 | 0.00 | 0.00 | 61 | 1012.5 |
| 20260506173206 | 71 | 261 | 2.6 | 3.5 | 0.00 | 0.00 | 0.00 | 61 | 1012.4 |
| 20260506172700 | 71 | 215 | 1.7 | 4.3 | 0.00 | 0.00 | 0.00 | 61 | 1012.4 |
| 20260506172200 | 71 | 263 | 0.9 | 3.5 | 0.00 | 0.00 | 0.00 | 61 | 1012.4 |
| 20260506171657 | 71 | 229 | 0.9 | 5.2 | 0.00 | 0.00 | 0.00 | 61 | 1012.5 |
| 20260506171203 | 71 | 213 | 2.6 | 5.2 | 0.00 | 0.00 | 0.00 | 62 | 1012.5 |
| 20260506170703 | 71 | 205 | 4.3 | 5.2 | 0.00 | 0.00 | 0.00 | 61 | 1012.5 |
| 20260506170157 | 71 | 259 | 0.9 | 4.3 | 0.00 | 0.00 | 0.00 | 62 | 1012.5 |
| 20260506165657 | 71 | 202 | 1.7 | 5.2 | 0.00 | 0.00 | 0.00 | 62 | 1012.7 |
| 20260506165203 | 71 | 220 | 3.5 | 6.1 | 0.00 | 0.00 | 0.00 | 62 | 1012.7 |
| 20260506164657 | 71 | 258 | 1.7 | 7.0 | 0.00 | 0.00 | 0.00 | 63 | 1012.8 |
| 20260506164200 | 71 | 333 | 2.6 | 6.1 | 0.00 | 0.00 | 0.00 | 63 | 1012.9 |
| 20260506163658 | 71 | 221 | 4.3 | 7.0 | 0.00 | 0.00 | 0.00 | 64 | 1012.9 |
| 20260506163206 | 71 | 250 | 7.0 | 7.0 | 0.00 | 0.00 | 0.00 | 63 | 1012.9 |
| 20260506162700 | 71 | 246 | 3.5 | 7.8 | 0.00 | 0.00 | 0.00 | 63 | 1012.8 |
| 20260506162157 | 71 | 238 | 5.2 | 7.8 | 0.00 | 0.00 | 0.00 | 65 | 1012.8 |
| 20260506161700 | 70 | 264 | 5.2 | 7.8 | 0.00 | 0.00 | 0.00 | 67 | 1012.8 |
| 20260506161157 | 70 | 264 | 3.5 | 7.0 | 0.00 | 0.00 | 0.00 | 69 | 1012.9 |
| 20260506160700 | 71 | 284 | 4.3 | 7.8 | 0.00 | 0.00 | 0.00 | 70 | 1013.0 |
| 20260506160200 | 71 | 213 | 6.1 | 7.8 | 0.00 | 0.00 | 0.00 | 70 | 1012.9 |
| 20260506155701 | 71 | 220 | 5.2 | 7.8 | 0.00 | 0.00 | 0.00 | 71 | 1013.0 |
| 20260506155200 | 71 | 236 | 4.3 | 8.7 | 0.00 | 0.00 | 0.00 | 70 | 1012.9 |
| 20260506154657 | 72 | 244 | 6.1 | 8.7 | 0.00 | 0.00 | 0.00 | 68 | 1012.9 |
| 20260506154203 | 73 | 228 | 7.8 | 9.6 | 0.00 | 0.00 | 0.00 | 65 | 1012.8 |
| 20260506153700 | 74 | 234 | 7.8 | 9.6 | 0.00 | 0.00 | 0.00 | 59 | 1012.7 |
| 20260506153157 | 74 | 202 | 4.3 | 8.7 | 0.00 | 0.00 | 0.00 | 51 | 1012.6 |
| 20260506152657 | 74 | 193 | 5.2 | 13.0 | 0.00 | 0.00 | 0.00 | 48 | 1012.4 |
| 20260506152203 | 75 | 172 | 4.3 | 13.9 | 0.00 | 0.00 | 0.00 | 47 | 1012.4 |
| 20260506151700 | 75 | 195 | 6.1 | 16.5 | 0.00 | 0.00 | 0.00 | 42 | 1012.4 |
| 20260506151203 | 76 | 174 | 4.3 | 9.6 | 0.00 | 0.00 | 0.00 | 40 | 1012.3 |
| 20260506150700 | 76 | 177 | 6.1 | 7.8 | 0.00 | 0.00 | 0.00 | 39 | 1012.2 |
| 20260506150206 | 76 | 182 | 6.1 | 7.8 | 0.00 | 0.00 | 0.00 | 43 | 1012.2 |
| 20260506145657 | 75 | 225 | 4.3 | 11.3 | 0.00 | 0.00 | 0.00 | 47 | 1012.2 |
| 20260506145157 | 76 | 227 | 8.7 | 13.9 | 0.00 | 0.00 | 0.00 | 46 | 1012.3 |
| 20260506144703 | 76 | 243 | 4.3 | 14.8 | 0.00 | 0.00 | 0.00 | 45 | 1012.2 |
| 20260506144157 | 76 | 192 | 9.6 | 12.2 | 0.00 | 0.00 | 0.00 | 46 | 1012.2 |
| 20260506143657 | 76 | 166 | 5.2 | 14.8 | 0.00 | 0.00 | 0.00 | 45 | 1012.2 |
| 20260506143157 | 77 | 230 | 8.7 | 15.6 | 0.00 | 0.00 | 0.00 | 45 | 1012.3 |
| 20260506142657 | 77 | 204 | 8.7 | 14.8 | 0.00 | 0.00 | 0.00 | 45 | 1012.2 |
| 20260506142200 | 77 | 223 | 7.0 | 13.9 | 0.00 | 0.00 | 0.00 | 47 | 1012.1 |
| 20260506141700 | 78 | 238 | 6.1 | 13.0 | 0.00 | 0.00 | 0.00 | 43 | 1012.0 |
| 20260506141206 | 78 | 211 | 2.6 | 12.2 | 0.00 | 0.00 | 0.00 | 41 | 1011.8 |
| 20260506140703 | 78 | 197 | 6.1 | 13.9 | 0.00 | 0.00 | 0.00 | 42 | 1011.7 |
| 20260506140200 | 78 | 191 | 5.2 | 13.0 | 0.00 | 0.00 | 0.00 | 44 | 1011.6 |
| 20260506135700 | 78 | 188 | 6.1 | 12.2 | 0.00 | 0.00 | 0.00 | 43 | 1011.5 |
| 20260506135200 | 78 | 227 | 6.1 | 13.9 | 0.00 | 0.00 | 0.00 | 39 | 1011.8 |
| 20260506134700 | 79 | 252 | 9.6 | 14.8 | 0.00 | 0.00 | 0.00 | 40 | 1011.9 |
| 20260506134158 | 79 | 210 | 10.4 | 13.9 | 0.00 | 0.00 | 0.00 | 40 | 1012.0 |
| 20260506133657 | 80 | 211 | 5.2 | 13.0 | 0.00 | 0.00 | 0.00 | 39 | 1012.0 |
| 20260506133157 | 80 | 254 | 4.3 | 14.8 | 0.00 | 0.00 | 0.00 | 39 | 1012.0 |
| 20260506132706 | 80 | 204 | 5.2 | 13.0 | 0.00 | 0.00 | 0.00 | 37 | 1011.9 |
| 20260506132157 | 80 | 175 | 8.7 | 11.3 | 0.00 | 0.00 | 0.00 | 36 | 1011.9 |
| 20260506131706 | 80 | 160 | 0.9 | 10.4 | 0.00 | 0.00 | 0.00 | 36 | 1011.9 |
| 20260506131157 | 80 | 151 | 2.6 | 14.8 | 0.00 | 0.00 | 0.00 | 37 | 1012.0 |
| 20260506130703 | 80 | 166 | 4.3 | 10.4 | 0.00 | 0.00 | 0.00 | 37 | 1012.0 |
| 20260506130157 | 80 | 139 | 7.8 | 13.0 | 0.00 | 0.00 | 0.00 | 37 | 1012.1 |
| 20260506125701 | 81 | 155 | 2.6 | 13.0 | 0.00 | 0.00 | 0.00 | 41 | 1012.2 |
| 20260506125157 | 81 | 203 | 5.2 | 7.8 | 0.00 | 0.00 | 0.00 | 41 | 1012.3 |
| 20260506124657 | 80 | 211 | 5.2 | 13.9 | 0.00 | 0.00 | 0.00 | 40 | 1012.3 |
| 20260506124157 | 82 | 208 | 7.8 | 13.0 | 0.00 | 0.00 | 0.00 | 39 | 1012.3 |
| 20260506123700 | 82 | 137 | 7.8 | 10.4 | 0.00 | 0.00 | 0.00 | 41 | 1012.4 |
| 20260506123203 | 82 | 217 | 7.0 | 9.6 | 0.00 | 0.00 | 0.00 | 41 | 1012.4 |
| 20260506122657 | 82 | 236 | 3.5 | 10.4 | 0.00 | 0.00 | 0.00 | 42 | 1012.4 |
| 20260506122157 | 81 | 118 | 0.0 | 3.5 | 0.00 | 0.00 | 0.00 | 44 | 1012.3 |
| 20260506121657 | 80 | 26 | 0.0 | 7.0 | 0.00 | 0.00 | 0.00 | 45 | 1012.3 |
| 20260506121157 | 80 | 26 | 3.5 | 7.8 | 0.00 | 0.00 | 0.00 | 46 | 1012.3 |
| 20260506120703 | 80 | 329 | 4.3 | 5.2 | 0.00 | 0.00 | 0.00 | 47 | 1012.3 |
| 20260506120157 | 80 | 314 | 3.5 | 8.7 | 0.00 | 0.00 | 0.00 | 47 | 1012.4 |
| 20260506115657 | 79 | 297 | 3.5 | 8.7 | 0.00 | 0.00 | 0.00 | 49 | 1012.4 |
| 20260506115203 | 79 | 17 | 3.5 | 7.8 | 0.00 | 0.00 | 0.00 | 48 | 1012.6 |
| 20260506114657 | 79 | 69 | 7.0 | 7.0 | 0.00 | 0.00 | 0.00 | 48 | 1012.7 |
| 20260506114203 | 78 | 65 | 6.1 | 8.7 | 0.00 | 0.00 | 0.00 | 48 | 1012.7 |
| 20260506113700 | 78 | 34 | 3.5 | 7.8 | 0.00 | 0.00 | 0.00 | 48 | 1012.8 |
| 20260506113157 | 78 | 16 | 4.3 | 7.8 | 0.00 | 0.00 | 0.00 | 48 | 1012.8 |
| 20260506112703 | 78 | 44 | 4.3 | 9.6 | 0.00 | 0.00 | 0.00 | 48 | 1012.8 |
| 20260506112200 | 78 | 53 | 3.5 | 7.8 | 0.00 | 0.00 | 0.00 | 48 | 1012.9 |
| 20260506111657 | 78 | 18 | 7.0 | 8.7 | 0.00 | 0.00 | 0.00 | 48 | 1013.1 |
| 20260506111200 | 78 | 343 | 5.2 | 8.7 | 0.00 | 0.00 | 0.00 | 48 | 1013.0 |
| 20260506110700 | 77 | 333 | 1.7 | 8.7 | 0.00 | 0.00 | 0.00 | 49 | 1013.1 |
| 20260506110200 | 77 | 0 | 3.5 | 7.8 | 0.00 | 0.00 | 0.00 | 48 | 1013.1 |
| 20260506105657 | 77 | 333 | 4.3 | 7.0 | 0.00 | 0.00 | 0.00 | 47 | 1013.2 |
| 20260506105157 | 77 | 11 | 1.7 | 6.1 | 0.00 | 0.00 | 0.00 | 47 | 1013.3 |
| 20260506104700 | 78 | 5 | 6.1 | 7.8 | 0.00 | 0.00 | 0.00 | 46 | 1013.3 |
| 20260506104157 | 79 | 64 | 3.5 | 8.7 | 0.00 | 0.00 | 0.00 | 45 | 1013.4 |
| 20260506103657 | 79 | 297 | 2.6 | 6.1 | 0.00 | 0.00 | 0.00 | 45 | 1013.3 |